Regional Weather Roundup
Issued by NWS

Home | Current Version | Previous Version | Text Only | Print | Product List | Glossary On
Versions: 1 2 3 4 5 6 7 8 9 10 11 12 13 14 15 16 17 18 19 20 21 22 23 24 25 26 27 28 29 30 31 32 33 34 35 36 37 38 39 40 41 42 43 44 45 46 47 48 49 50
000
ASUS44 KMEG 301000
RWRTN
TENNESSEE HOURLY STATE WEATHER ROUNDUP
NATIONAL WEATHER SERVICE MEMPHIS TN
500 AM CDT MON MAR 30 2015

TNZ002-004-019-021-049-052-054-088>092-301100-
WEST TENNESSEE

CITY           SKY/WX    TMP DP  RH WIND       PRES   REMARKS
MEMPHIS INTL   CLEAR     54  49  83 N5        30.13R
NWS MEMPHIS      N/A     51 N/A N/A MISG        N/A
JACKSON        CLEAR     46  44  93 W3        30.12R
DYERSBURG      CLEAR     50  34  53 CALM      30.14R
UNION CITY     CLEAR     45  45 100 W3        30.10R
PARIS          CLEAR     39  39 100 CALM      30.10R
LEXINGTON      CLOUDY    45  45 100 CALM      30.09R VSB 1/4
SAVANNAH       CLOUDY    48  48 100 CALM      30.09S VSB 0
$$

TNZ008-025-027-028-033-062-065-066-301100-
NORTH MIDDLE TENNESSEE

CITY           SKY/WX    TMP DP  RH WIND       PRES   REMARKS
NASHVILLE      PTCLDY    48  46  93 CALM      30.08R
CLARKSVILLE    CLEAR     49  44  83 W6        30.08R
COOKEVILLE     MOCLDY    46  46 100 SW3       30.06R
CROSSVILLE     CLOUDY    46  43  89 SW5       30.06S
$$

TNZ061-075-076-078-094-096-097-301100-
SOUTH MIDDLE TENNESSEE

CITY           SKY/WX    TMP DP  RH WIND       PRES   REMARKS
FAYETTEVILLE   CLOUDY    48  46  93 CALM      30.06F
TULLAHOMA      CLOUDY    48  46  93 CALM      30.08F
WINCHESTER     CLOUDY    50  48  93 NW3       30.07S
COLUMBIA       CLOUDY   N/A N/A N/A CALM      30.07R VSB 0
SHELBYVILLE    CLEAR     48  48 100 CALM      30.09R
$$

TNZ017-018-042-046-047-301100-
NORTHEAST TENNESSEE

CITY           SKY/WX    TMP DP  RH WIND       PRES   REMARKS
TRI CITIES     LGT RAIN  41  37  86 S3        30.05R
ELIZABETHTON   RAIN      37  36  93 CALM      30.06R
$$

TNZ012-013-036-069-073-074-301100-
CENTRAL EAST TENNESSEE

CITY           SKY/WX    TMP DP  RH WIND       PRES   REMARKS
KNOXVILLE      LGT RAIN  47  44  90 W13       30.07R
OAK RIDGE      CLOUDY    48  43  82 SW6       30.07F
GATLINBURG     CLOUDY    41  39  93 CALM      30.05S
$$

TNZ083-085-099-301100-
SOUTHEAST TENNESSEE

CITY           SKY/WX    TMP DP  RH WIND       PRES   REMARKS
CHATTANOOGA    CLOUDY    49  48  97 CALM      30.05S
$$

SKY/WX REPORTED AS FAIR MEANS FEW OR NO CLOUDS BELOW
12 THOUSAND FEET.



USA.gov is the U.S. government's official web portal to all federal, state and local government web resources and services.